Time,TemperatureF,DewpointF,PressureIn,WindDirection,WindDirectionDegrees,WindSpeedMPH,WindSpeedGustMPH,Humidity,HourlyPrecipIn,Conditions,Clouds,dailyrainin,SolarRadiationWatts/m^2,SoftwareType,DateUTC
2013-10-13 00:00:00,61.0,53.0,-100.00,South,180,6.0,-999.0,74,-99.99,,,-99.99,0.000000,,2013-10-13 04:00:00,
2013-10-13 00:43:00,61.0,53.0,-100.00,South,180,6.0,-999.0,74,-99.99,,,-99.99,0.000000,,2013-10-13 04:43:00,
2013-10-13 00:54:00,61.0,53.0,-100.00,South,180,6.0,-999.0,74,-99.99,,,-99.99,0.000000,,2013-10-13 04:54:00,
2013-10-13 01:00:00,59.0,47.0,-100.00,South,180,5.0,-999.0,64,-99.99,,,-99.99,0.000000,,2013-10-13 05:00:00,
2013-10-13 01:43:00,59.0,47.0,-100.00,South,180,5.0,-999.0,64,-99.99,,,-99.99,0.000000,,2013-10-13 05:43:00,
2013-10-13 01:52:00,59.0,47.0,-100.00,South,180,5.0,-999.0,64,-99.99,,,-99.99,0.000000,,2013-10-13 05:52:00,
2013-10-13 02:00:00,59.0,44.0,-100.00,South,180,7.0,-999.0,57,-99.99,,,-99.99,0.000000,,2013-10-13 06:00:00,
2013-10-13 02:42:00,59.0,44.0,-100.00,South,180,7.0,-999.0,57,-99.99,,,-99.99,0.000000,,2013-10-13 06:42:00,
2013-10-13 02:52:00,59.0,44.0,-100.00,South,180,7.0,-999.0,57,-99.99,,,-99.99,0.000000,,2013-10-13 06:52:00,
2013-10-13 03:00:00,58.0,41.0,-100.00,South,180,7.0,-999.0,52,-99.99,,,-99.99,0.000000,,2013-10-13 07:00:00,
2013-10-13 03:42:00,58.0,41.0,-100.00,South,180,7.0,-999.0,52,-99.99,,,-99.99,0.000000,,2013-10-13 07:42:00,
2013-10-13 03:52:00,58.0,41.0,-100.00,South,180,7.0,-999.0,52,-99.99,,,-99.99,0.000000,,2013-10-13 07:52:00,
2013-10-13 05:00:00,57.0,39.0,-100.00,SSW,202,4.0,-999.0,52,-99.99,,,-99.99,0.000000,,2013-10-13 09:00:00,
2013-10-13 05:43:00,57.0,39.0,-100.00,SSW,202,4.0,-999.0,52,-99.99,,,-99.99,0.000000,,2013-10-13 09:43:00,
2013-10-13 05:53:00,57.0,39.0,-100.00,SSW,202,4.0,-999.0,52,-99.99,,,-99.99,0.000000,,2013-10-13 09:53:00,
2013-10-13 06:00:00,54.0,39.0,-100.00,SW,225,1.0,-999.0,57,-99.99,,,-99.99,0.000000,,2013-10-13 10:00:00,
2013-10-13 06:43:00,54.0,39.0,-100.00,SW,225,1.0,-999.0,57,-99.99,,,-99.99,0.000000,,2013-10-13 10:43:00,
2013-10-13 06:53:00,54.0,39.0,-100.00,SW,225,1.0,-999.0,57,-99.99,,,-99.99,0.000000,,2013-10-13 10:53:00,
2013-10-13 07:00:00,49.0,41.0,-100.00,NE,45,1.0,-999.0,76,-99.99,,,-99.99,0.000000,,2013-10-13 11:00:00,
2013-10-13 07:42:00,49.0,41.0,-100.00,NE,45,1.0,-999.0,76,-99.99,,,-99.99,0.000000,,2013-10-13 11:42:00,
2013-10-13 07:52:00,49.0,41.0,-100.00,NE,45,1.0,-999.0,76,-99.99,,,-99.99,0.000000,,2013-10-13 11:52:00,
2013-10-13 08:00:00,45.0,41.0,-100.00,NNE,22,0.0,-999.0,84,-99.99,,,-99.99,1.160000,,2013-10-13 12:00:00,
2013-10-13 08:42:00,45.0,41.0,-100.00,NNE,22,0.0,-999.0,84,-99.99,,,-99.99,1.160000,,2013-10-13 12:42:00,
2013-10-13 08:52:00,45.0,41.0,-100.00,NNE,22,0.0,-999.0,84,-99.99,,,-99.99,1.160000,,2013-10-13 12:52:00,
2013-10-13 10:00:00,56.0,44.0,-100.00,SSE,157,3.0,-999.0,65,-99.99,,,-99.99,183.279999,,2013-10-13 14:00:00,
2013-10-13 10:42:00,56.0,44.0,-100.00,SSE,157,3.0,-999.0,65,-99.99,,,-99.99,183.279999,,2013-10-13 14:42:00,
2013-10-13 10:52:00,56.0,44.0,-100.00,SSE,157,3.0,-999.0,65,-99.99,,,-99.99,183.279999,,2013-10-13 14:52:00,
2013-10-13 11:00:00,59.0,41.0,-100.00,South,180,9.0,-999.0,51,-99.99,,,-99.99,294.640015,,2013-10-13 15:00:00,
2013-10-13 11:43:00,59.0,41.0,-100.00,South,180,9.0,-999.0,51,-99.99,,,-99.99,294.640015,,2013-10-13 15:43:00,
2013-10-13 11:54:00,59.0,41.0,-100.00,South,180,9.0,-999.0,51,-99.99,,,-99.99,294.640015,,2013-10-13 15:54:00,
2013-10-13 12:00:00,59.0,42.0,-100.00,SSW,202,9.0,-999.0,52,-99.99,,,-99.99,429.200012,,2013-10-13 16:00:00,
2013-10-13 12:43:00,59.0,42.0,-100.00,SSW,202,9.0,-999.0,52,-99.99,,,-99.99,429.200012,,2013-10-13 16:43:00,
2013-10-13 12:54:00,59.0,42.0,-100.00,SSW,202,9.0,-999.0,52,-99.99,,,-99.99,429.200012,,2013-10-13 16:54:00,
2013-10-13 13:00:00,59.0,41.0,-100.00,South,180,10.0,-999.0,50,-99.99,,,-99.99,504.600006,,2013-10-13 17:00:00,
2013-10-13 13:43:00,59.0,41.0,-100.00,South,180,10.0,-999.0,50,-99.99,,,-99.99,504.600006,,2013-10-13 17:43:00,
2013-10-13 13:52:00,59.0,41.0,-100.00,South,180,10.0,-999.0,50,-99.99,,,-99.99,504.600006,,2013-10-13 17:52:00,
2013-10-13 14:00:00,59.0,40.0,-100.00,South,180,10.0,-999.0,48,-99.99,,,-99.99,530.119995,,2013-10-13 18:00:00,
2013-10-13 14:42:00,59.0,40.0,-100.00,South,180,10.0,-999.0,48,-99.99,,,-99.99,530.119995,,2013-10-13 18:42:00,
2013-10-13 14:52:00,59.0,40.0,-100.00,South,180,10.0,-999.0,48,-99.99,,,-99.99,530.119995,,2013-10-13 18:52:00,
2013-10-13 15:00:00,59.0,39.0,-100.00,SSW,202,9.0,-999.0,46,-99.99,,,-99.99,512.719971,,2013-10-13 19:00:00,
2013-10-13 15:42:00,59.0,39.0,-100.00,SSW,202,9.0,-999.0,46,-99.99,,,-99.99,512.719971,,2013-10-13 19:42:00,
2013-10-13 15:53:00,59.0,39.0,-100.00,SSW,202,9.0,-999.0,46,-99.99,,,-99.99,512.719971,,2013-10-13 19:53:00,
2013-10-13 17:00:00,58.0,39.0,-100.00,SSW,202,8.0,-999.0,49,-99.99,,,-99.99,328.279999,,2013-10-13 21:00:00,
2013-10-13 17:44:00,58.0,39.0,-100.00,SSW,202,8.0,-999.0,49,-99.99,,,-99.99,328.279999,,2013-10-13 21:44:00,
2013-10-13 17:55:00,58.0,39.0,-100.00,SSW,202,8.0,-999.0,49,-99.99,,,-99.99,328.279999,,2013-10-13 21:55:00,
2013-10-13 18:00:00,58.0,39.0,-100.00,SW,225,6.0,-999.0,49,-99.99,,,-99.99,196.039993,,2013-10-13 22:00:00,
2013-10-13 18:43:00,58.0,39.0,-100.00,SW,225,6.0,-999.0,49,-99.99,,,-99.99,196.039993,,2013-10-13 22:43:00,
2013-10-13 18:53:00,58.0,39.0,-100.00,SW,225,6.0,-999.0,49,-99.99,,,-99.99,196.039993,,2013-10-13 22:53:00,
2013-10-13 19:00:00,56.0,38.0,-100.00,SW,225,4.0,-999.0,50,-99.99,,,-99.99,60.320000,,2013-10-13 23:00:00,
2013-10-13 19:42:00,56.0,38.0,-100.00,SW,225,4.0,-999.0,50,-99.99,,,-99.99,60.320000,,2013-10-13 23:42:00,
2013-10-13 19:52:00,56.0,38.0,-100.00,SW,225,4.0,-999.0,50,-99.99,,,-99.99,60.320000,,2013-10-13 23:52:00,
2013-10-13 21:00:00,47.0,40.0,-100.00,WNW,292,1.0,-999.0,75,-99.99,,,-99.99,0.000000,,2013-10-14 01:00:00,
2013-10-13 21:42:00,47.0,40.0,-100.00,WNW,292,1.0,-999.0,75,-99.99,,,-99.99,0.000000,,2013-10-14 01:42:00,
2013-10-13 21:52:00,47.0,40.0,-100.00,WNW,292,1.0,-999.0,75,-99.99,,,-99.99,0.000000,,2013-10-14 01:52:00,
2013-10-13 22:00:00,45.0,40.0,-100.00,West,270,0.0,-999.0,80,-99.99,,,-99.99,0.000000,,2013-10-14 02:00:00,
2013-10-13 22:42:00,45.0,40.0,-100.00,West,270,0.0,-999.0,80,-99.99,,,-99.99,0.000000,,2013-10-14 02:42:00,
2013-10-13 22:52:00,45.0,40.0,-100.00,West,270,0.0,-999.0,80,-99.99,,,-99.99,0.000000,,2013-10-14 02:52:00,
2013-10-13 23:00:00,44.0,39.0,-100.00,WNW,292,1.0,-999.0,84,-99.99,,,-99.99,0.000000,,2013-10-14 03:00:00,
2013-10-13 23:44:00,44.0,39.0,-100.00,WNW,292,1.0,-999.0,84,-99.99,,,-99.99,0.000000,,2013-10-14 03:44:00,
2013-10-13 23:55:00,44.0,39.0,-100.00,WNW,292,1.0,-999.0,84,-99.99,,,-99.99,0.000000,,2013-10-14 03:55:00,